EDT,Max TemperatureF,Mean TemperatureF,Min TemperatureF,Max Dew PointF,MeanDew PointF,Min DewpointF,Max Humidity, Mean Humidity, Min Humidity, Max Sea Level PressureIn, Mean Sea Level PressureIn, Min Sea Level PressureIn, Max VisibilityMiles, Mean VisibilityMiles, Min VisibilityMiles, Max Wind SpeedMPH, Mean Wind SpeedMPH, Max Gust SpeedMPH,PrecipitationIn, CloudCover, Events, WindDirDegrees
2013-8-1,73,66,57,66,62,53,100,91,49,29.98,29.95,29.94,10,4,0,9,3,,0.00,2,Fog,278
2013-8-2,79,67,55,67,61,53,100,89,66,29.95,29.91,29.85,10,6,1,15,3,23,0.07,5,Rain-Thunderstorm,191
2013-8-3,73,64,57,65,61,56,100,88,59,30.09,30.01,29.94,10,5,0,8,1,20,0.00,1,Fog,354
2013-8-4,70,62,54,57,54,52,100,78,56,30.22,30.16,30.10,10,10,8,9,2,,0.00,1,,27
2013-8-5,75,62,50,61,56,49,100,79,57,30.14,30.04,29.93,10,10,10,10,2,,0.01,5,,166
2013-8-6,80,71,62,70,66,61,100,89,69,29.93,29.89,29.86,10,6,0,13,6,,0.41,7,Fog-Rain,183
2013-8-7,82,73,64,72,68,63,100,89,64,29.94,29.85,29.80,10,8,1,13,5,22,0.20,4,Rain-Thunderstorm,158
2013-8-8,78,68,61,64,59,55,100,76,51,30.02,29.98,29.94,10,10,6,12,4,,0.01,0,,45
2013-8-9,78,65,55,63,59,55,100,76,50,30.01,30.00,29.97,10,9,2,7,2,,0.00,1,,287
2013-8-10,78,70,63,64,59,53,97,71,42,30.13,30.09,30.02,10,9,5,9,3,,0.00,3,,54
2013-8-11,75,65,55,62,58,54,100,74,50,30.13,30.10,30.05,10,10,7,7,1,,0.00,5,,297
2013-8-12,80,72,64,68,65,61,100,89,58,30.04,29.94,29.87,10,5,0,12,2,,0.34,6,Fog-Rain-Thunderstorm,240
2013-8-13,66,60,55,65,52,46,100,73,56,30.14,30.04,29.91,10,10,6,12,4,22,0.00,1,,11
2013-8-14,66,54,45,52,47,43,97,72,45,30.22,30.19,30.15,10,10,7,9,2,,0.00,0,,347
2013-8-15,73,59,45,57,52,45,100,79,51,30.19,30.16,30.12,10,10,4,13,3,18,0.00,0,,259
2013-8-16,78,64,52,60,56,51,100,78,40,30.20,30.17,30.14,10,8,4,7,2,,0.00,2,,235
2013-8-17,81,66,51,57,54,51,100,74,38,30.25,30.22,30.18,10,8,2,8,2,,0.00,0,,60
2013-8-18,79,64,51,60,56,50,100,81,45,30.22,30.18,30.12,10,6,2,8,1,,0.01,0,,329
2013-8-19,82,67,53,61,57,54,100,82,42,30.14,30.11,30.05,10,6,2,9,1,,0.00,0,,276
2013-8-20,84,72,59,66,62,59,100,80,49,30.14,30.10,30.06,10,6,2,14,2,,0.00,0,,229
2013-8-21,89,75,62,67,64,60,100,71,39,30.11,30.06,29.98,10,7,2,14,5,22,0.00,0,,202
2013-8-22,77,70,66,70,68,64,100,94,78,30.13,30.08,30.00,10,6,1,24,8,36,1.14,6,Rain-Thunderstorm,277
2013-8-23,79,70,57,68,62,55,100,88,44,30.19,30.13,30.09,10,5,0,9,2,,0.01,3,Fog,43
2013-8-24,82,66,51,62,57,51,100,76,41,30.29,30.25,30.19,10,10,8,9,2,,0.01,0,,149
2013-8-25,86,72,57,66,61,56,97,69,44,30.28,30.22,30.14,10,10,8,14,6,22,0.00,0,,184
2013-8-26,86,78,70,71,66,61,76,67,60,30.17,30.09,30.00,10,9,7,14,9,20,0.00,0,,225
2013-8-27,91,83,75,72,71,69,87,69,50,30.00,29.92,29.82,10,9,6,20,12,31,0.00,1,,231
2013-8-28,81,76,68,73,71,68,100,95,67,30.03,29.94,29.82,10,5,0,21,8,28,0.00,6,Fog,309
2013-8-29,81,70,60,71,65,61,100,95,62,30.08,30.05,29.99,10,4,0,8,0,,0.00,2,Fog,338
2013-8-30,91,78,64,73,69,64,100,80,48,29.99,29.87,29.74,10,7,2,16,4,22,0.04,1,Thunderstorm,222
2013-8-31,78,71,64,70,67,64,100,89,74,29.86,29.83,29.78,10,10,6,7,2,,0.00,5,,55